Location: Fredericksburg
(30.2750°N, 98.8720°W)
Time: 21:28:09
(UTC-05:00)

Amateur Radio Satellites - All Passes

Search period start: 27 March 2017 20:58
Search period end: 28 March 2017 20:58
Location: Fredericksburg, 30.2750°N, 98.8720°W

Satellite Date Start Highest point End Downlink Frequencies (MHz)
Time Altitude Azimuth
XW-2A 27 Mar 21:03:04 21:05:34 19° 263° (W) 21:08:04 145.665 - 145.685
AO-73 27 Mar 21:08:59 21:12:57 30° 73° (ENE) 21:16:53 145.935
HO-68 27 Mar 21:12:16 21:18:59 43° 260° (W) 21:25:42 435.675
STRAND 1 27 Mar 21:13:47 21:18:50 66° 285° (WNW) 21:23:52 437.568
PCSat 27 Mar 21:22:39 21:26:22 19° 255° (WSW) 21:30:05 145.827
YUBILEINY 27 Mar 21:28:00 21:34:44 26° 275° (W) 21:41:32 435.215
AO-85 27 Mar 21:31:00 21:35:28 53° 298° (WNW) 21:39:37 145.980
UWE-3 27 Mar 21:39:03 21:43:38 56° 260° (W) 21:48:11 435.000/436.395/437.385
AAUSAT CUBESAT 2 27 Mar 21:50:57 21:54:33 30° 263° (W) 21:58:09 437.432
Oscar 11 27 Mar 22:07:09 22:11:24 60° 259° (W) 22:15:39 .
ZACube-1 27 Mar 22:17:16 22:21:25 34° 262° (W) 22:25:32 437.345
RS-15 27 Mar 22:17:56 22:29:43 51° 56° (NE) 22:40:53 29.354- 29.394
CUBEBUG 2 27 Mar 22:18:24 22:20:27 13° 267° (W) 22:22:32 437.445
TIGRISAT 27 Mar 22:33:14 22:34:09 11° 93° (E) 22:35:05 435.000
UNISAT 6 27 Mar 22:42:11 22:44:53 16° 94° (E) 22:47:34 437.425
AO-73 27 Mar 22:46:01 22:49:08 18° 265° (W) 22:52:13 145.935
DELFI C3 27 Mar 22:57:39 23:01:25 48° 260° (W) 23:05:13 145.870
PRISM 27 Mar 23:02:34 23:06:43 67° 102° (ESE) 23:10:50 437.425
BEESAT 3 27 Mar 23:03:28 23:07:13 49° 299° (WNW) 23:11:04 437.485
BEESAT 2 27 Mar 23:22:04 23:25:58 88° 298° (WNW) 23:29:58 435.950
LO-87 28 Mar 00:06:03 00:09:36 67° 259° (W) 00:13:12 145.935 - 145.965
TIGRISAT 28 Mar 00:06:53 00:11:02 44° 286° (WNW) 00:15:06 435.000
VELOX 1 28 Mar 00:10:52 00:13:22 15° 69° (ENE) 00:15:53 145.980
UNISAT 6 28 Mar 00:17:48 00:21:37 30° 287° (WNW) 00:25:22 437.425
FO-29 28 Mar 00:18:50 00:24:35 77° 285° (WNW) 00:29:49 435.910
NANOSAT C BR1 28 Mar 00:24:56 00:27:21 15° 95° (E) 00:29:46 145.865
SO-50 28 Mar 00:26:15 00:30:31 42° 59° (ENE) 00:34:47 436.795
EO-79 28 Mar 00:29:54 00:32:58 19° 96° (E) 00:36:00 145.935-145.965
RS-15 28 Mar 00:30:57 00:41:47 41° 254° (WSW) 00:52:09 29.354- 29.394
ESTCUBE 1 28 Mar 00:39:08 00:43:33 62° 259° (W) 00:47:59 437.505/2401.250
SPROUT 28 Mar 00:42:32 00:46:18 30° 73° (ENE) 00:50:03 437.525
AIST 2D 28 Mar 00:47:31 00:50:59 71° 101° (E) 00:54:26 435.315
50 SAT 28 Mar 00:55:09 00:58:02 25° 73° (ENE) 01:00:55 437.505
POLYITAN 1 28 Mar 00:57:39 01:01:42 44° 100° (E) 01:05:41 437.675
QB50P2 28 Mar 01:02:16 01:06:25 57° 100° (E) 01:10:32 145.880/145.840
DUCHIFAT 1 28 Mar 01:12:07 01:16:14 55° 100° (E) 01:20:19 145.980
DX 1 28 Mar 01:17:31 01:21:28 35° 73° (ENE) 01:25:25 434.975-435.025
BUGSAT 1 28 Mar 01:22:56 01:26:03 20° 96° (E) 01:29:07 437.445
VELOX 1 28 Mar 01:45:26 01:49:28 36° 261° (W) 01:53:32 145.980
UKube-1 28 Mar 01:54:07 01:58:22 70° 77° (ENE) 02:02:40 .
NANOSAT C BR1 28 Mar 01:59:22 02:03:04 31° 287° (WNW) 02:06:45 145.865
EO-79 28 Mar 02:05:12 02:08:37 24° 288° (WNW) 02:12:00 145.935-145.965
SO-50 28 Mar 02:08:18 02:10:34 14° 252° (WSW) 02:12:49 436.795
SPROUT 28 Mar 02:19:28 02:22:11 16° 265° (W) 02:24:54 437.525
Oscar 19 28 Mar 02:21:16 02:25:46 30° 98° (E) 02:30:16 437.125/150
50 SAT 28 Mar 02:29:58 02:31:03 11° 265° (W) 02:32:08 437.505
POLYITAN 1 28 Mar 02:35:52 02:37:00 11° 292° (WNW) 02:38:09 437.675
BEESAT 28 Mar 02:37:24 02:39:34 13° 67° (ENE) 02:41:45 436.000
Gurwin Techsat 1B 28 Mar 02:48:06 02:52:47 31° 98° (E) 02:57:25 435.225
ITUPSAT 1 28 Mar 02:53:19 02:56:45 20° 69° (ENE) 03:00:10 437.325
DX 1 28 Mar 02:55:24 02:57:41 14° 265° (W) 03:00:00 434.975-435.025
BUGSAT 1 28 Mar 02:58:04 03:01:16 22° 289° (WNW) 03:04:26 437.445
O/OREOS (USA 219) 28 Mar 03:02:31 03:06:07 22° 65° (ENE) 03:09:41 437.305
Tancredo 1 28 Mar 03:21:36 03:23:08 13° 35° (NE) 03:24:40 437.200
ISS 28 Mar 03:28:40 03:30:27 14° 35° (NE) 03:32:14 437.550
Oscar 19 28 Mar 04:00:45 04:04:53 25° 290° (WNW) 04:09:00 437.125/150
ITAMSAT 1 28 Mar 04:11:43 04:16:16 30° 98° (E) 04:20:45 435.822/435.867
BEESAT 28 Mar 04:12:14 04:16:52 50° 260° (W) 04:21:29 436.000
MOZHAYETS 4 28 Mar 04:14:36 04:19:09 63° 76° (ENE) 04:23:40
Gurwin Techsat 1B 28 Mar 04:28:16 04:32:31 25° 291° (WNW) 04:36:46 435.225
ITUPSAT 1 28 Mar 04:30:01 04:34:17 32° 262° (W) 04:38:34 437.325
O/OREOS (USA 219) 28 Mar 04:41:37 04:45:24 26° 258° (WSW) 04:49:10 437.305
AO-7 28 Mar 04:51:45 04:59:53 58° 103° (ESE) 05:07:59 .
Tancredo 1 28 Mar 04:56:20 04:59:26 47° 229° (SW) 05:02:30 437.200
ISS 28 Mar 05:03:55 05:07:05 45° 230° (SW) 05:10:15 437.550
CUBESAT XI-V 28 Mar 05:11:37 05:15:50 38° 74° (ENE) 05:20:04 437.345
KKS-1 28 Mar 05:20:22 05:24:47 70° 75° (ENE) 05:29:14 437.445
NO-84 28 Mar 05:50:30 05:52:48 20° 125° (SE) 05:55:02 435.350 FM
ITAMSAT 1 28 Mar 05:51:24 05:55:30 24° 291° (WNW) 05:59:36 435.822/435.867
STARS 28 Mar 05:51:44 05:56:06 66° 76° (ENE) 06:00:30 437.465
AO-85 28 Mar 06:08:03 06:11:10 22° 57° (ENE) 06:14:23 145.980
JUGNU 28 Mar 06:14:12 06:16:57 13° 162° (SSE) 06:19:41 437.505
DOVE 4 28 Mar 06:17:47 06:19:56 12° 91° (E) 06:22:04 437.250
AO-7 28 Mar 06:45:36 06:52:03 26° 298° (WNW) 06:58:31 .
CUBESAT XI-V 28 Mar 06:50:44 06:53:17 15° 266° (W) 06:55:49 437.345
XW-2F 28 Mar 06:54:03 06:56:24 16° 95° (E) 06:58:45 145.980 - 146.000
LilacSat-2 28 Mar 06:58:14 07:01:05 20° 96° (E) 07:03:55 437.200
M-CUBED/EXP-1 PRIME 28 Mar 07:12:45 07:16:20 87° 254° (WSW) 07:20:15 437.505
NUDT-PHONESAT 28 Mar 07:13:36 07:16:36 24° 97° (E) 07:19:35 437.300
XW-2D 28 Mar 07:20:06 07:23:39 40° 99° (E) 07:27:11 145.860 - 145.880
KAITUO 1B 28 Mar 07:22:52 07:26:13 32° 98° (E) 07:29:34 145.475/437.950
XW-2B 28 Mar 07:26:01 07:29:39 47° 99° (E) 07:33:15 145.730 - 145.750
BEESAT 3 28 Mar 07:26:36 07:29:02 15° 54° (NE) 07:31:26 437.485
NO-84 28 Mar 07:28:24 07:30:15 15° 316° (NW) 07:32:04 435.350 FM
XW-2C 28 Mar 07:36:12 07:39:56 71° 100° (E) 07:43:39 145.795 - 145.815
AO-85 28 Mar 07:48:19 07:51:25 21° 248° (WSW) 07:54:36 145.980
DOVE 4 28 Mar 07:52:43 07:57:54 58° 285° (WNW) 08:02:55 437.250
CUTE-I 28 Mar 07:52:51 07:58:12 83° 102° (ESE) 08:03:31 437.470
JUGNU 28 Mar 08:00:43 08:05:22 25° 171° (S) 08:10:04 437.505
SRMSAT 28 Mar 08:21:57 08:23:17 11° 160° (SSE) 08:24:37 437.500
YUBILEINY 28 Mar 08:23:13 08:31:55 73° 93° (E) 08:40:35 435.215
STRAND 1 28 Mar 08:23:34 08:28:43 84° 257° (WSW) 08:33:53 437.568
SEEDS 28 Mar 08:25:10 08:27:42 15° 95° (E) 08:30:13 437.485
XW-2F 28 Mar 08:27:33 08:30:27 22° 287° (WNW) 08:33:22 145.980 - 146.000
XW-2A 28 Mar 08:29:47 08:32:52 34° 99° (E) 08:35:56 145.665 - 145.685
LilacSat-2 28 Mar 08:32:36 08:35:11 18° 288° (WNW) 08:37:45 437.200
PCSat 28 Mar 08:34:25 08:36:15 12° 103° (ESE) 08:38:05 145.827
CUTE 1.7 + AOD 2 28 Mar 08:34:27 08:38:16 33° 98° (E) 08:42:06 437.475
CUBEBUG 2 28 Mar 08:37:35 08:39:55 14° 94° (E) 08:42:13 437.445
HO-68 28 Mar 08:45:47 08:52:44 52° 102° (ESE) 08:59:40 435.675
NUDT-PHONESAT 28 Mar 08:48:14 08:50:16 14° 289° (WNW) 08:52:19 437.300
KAITUO 1B 28 Mar 08:58:57 08:59:53 11° 290° (WNW) 09:00:49 145.475/437.950
BEESAT 3 28 Mar 09:03:04 09:06:41 33° 248° (WSW) 09:10:15 437.485
BEESAT 2 28 Mar 09:22:35 09:26:34 58° 245° (WSW) 09:30:29 435.950
UWE-3 28 Mar 09:34:44 09:38:47 43° 99° (E) 09:42:45 435.000/436.395/437.385
AAUSAT CUBESAT 2 28 Mar 09:37:59 09:42:06 61° 100° (E) 09:46:11 437.432
PRISM 28 Mar 09:46:54 09:49:58 21° 71° (ENE) 09:53:02 437.425
JUGNU 28 Mar 09:48:51 09:53:54 30° 180° (S) 09:58:59 437.505
SEEDS 28 Mar 09:59:42 10:03:21 30° 287° (WNW) 10:07:01 437.485
Oscar 11 28 Mar 10:00:07 10:04:06 37° 99° (E) 10:08:05 .
SRMSAT 28 Mar 10:07:20 10:11:52 22° 168° (SSE) 10:16:25 437.500
ZACube-1 28 Mar 10:11:00 10:15:11 70° 101° (E) 10:19:17 437.345
CUTE 1.7 + AOD 2 28 Mar 10:11:28 10:13:46 15° 290° (WNW) 10:16:05 437.475
CUBEBUG 2 28 Mar 10:12:44 10:16:36 32° 287° (WNW) 10:20:21 437.445
PCSat 28 Mar 10:13:38 10:18:59 65° 296° (WNW) 10:24:23 145.827
FO-29 28 Mar 10:23:06 10:29:35 30° 68° (ENE) 10:35:47 435.910
YUBILEINY 28 Mar 10:23:44 10:29:21 18° 289° (WNW) 10:35:00 435.215
HO-68 28 Mar 10:34:30 10:39:57 24° 296° (WNW) 10:45:26 435.675
AO-73 28 Mar 10:38:20 10:42:24 56° 284° (WNW) 10:46:26 145.935
DELFI C3 28 Mar 10:40:27 10:43:57 29° 98° (E) 10:47:28 145.870
TIGRISAT 28 Mar 10:58:43 11:03:24 74° 76° (ENE) 11:08:04 435.000
UNISAT 6 28 Mar 11:09:30 11:14:12 76° 259° (WSW) 11:18:52 437.425
UWE-3 28 Mar 11:13:38 11:14:46 11° 292° (WNW) 11:15:53 435.000/436.395/437.385
AIST 2D 28 Mar 11:18:59 11:19:41 10° 70° (ENE) 11:20:22 435.315
PRISM 28 Mar 11:22:00 11:25:05 21° 263° (W) 11:28:11 437.425
Oscar 11 28 Mar 11:37:40 11:39:52 14° 291° (WNW) 11:42:02 .
JUGNU 28 Mar 11:37:48 11:42:26 24° 190° (S) 11:47:04 437.505
LO-87 28 Mar 11:40:04 11:42:04 14° 95° (E) 11:44:03 145.935 - 145.965
POLYITAN 1 28 Mar 11:45:32 11:48:16 17° 70° (ENE) 11:51:00 437.675
QB50P2 28 Mar 11:49:47 11:52:56 20° 71° (ENE) 11:56:07 145.880/145.840
SRMSAT 28 Mar 11:55:25 12:00:34 30° 178° (S) 12:05:44 437.500
DUCHIFAT 1 28 Mar 11:58:54 12:01:57 20° 71° (ENE) 12:05:01 145.980
FO-29 28 Mar 12:06:40 12:14:11 49° 260° (W) 12:21:25 435.910
DELFI C3 28 Mar 12:16:15 12:18:27 14° 290° (WNW) 12:20:38 145.870
RS-15 28 Mar 12:32:22 12:43:42 56° 109° (ESE) 12:55:30 29.354- 29.394
ESTCUBE 1 28 Mar 12:37:16 12:41:34 42° 99° (E) 12:45:49 437.505/2401.250
NANOSAT C BR1 28 Mar 12:44:42 12:48:58 86° 77° (ENE) 12:53:14 145.865
AIST 2D 28 Mar 12:49:24 12:52:33 30° 262° (W) 12:55:42 435.315
EO-79 28 Mar 12:50:38 12:54:53 72° 259° (W) 12:59:10 145.935-145.965
LO-87 28 Mar 13:12:30 13:15:27 23° 287° (WNW) 13:18:22 145.935 - 145.965
POLYITAN 1 28 Mar 13:19:59 13:23:45 30° 262° (W) 13:27:33 437.675
QB50P2 28 Mar 13:25:03 13:28:32 24° 263° (W) 13:32:02 145.880/145.840
JUGNU 28 Mar 13:28:31 13:30:52 12° 199° (SSW) 13:33:13 437.505
Oscar 19 28 Mar 13:32:53 13:36:58 25° 70° (ENE) 13:41:02 437.125/150
DUCHIFAT 1 28 Mar 13:33:54 13:37:24 25° 263° (W) 13:40:57 145.980
BUGSAT 1 28 Mar 13:40:33 13:44:45 72° 258° (WSW) 13:49:00 437.445
VELOX 1 28 Mar 13:40:36 13:45:03 65° 101° (ESE) 13:49:27 145.980
SRMSAT 28 Mar 13:44:20 13:49:17 27° 188° (S) 13:54:14 437.500
UKube-1 28 Mar 13:47:47 13:50:47 18° 96° (E) 13:53:46 .
50 SAT 28 Mar 13:57:04 14:00:34 67° 101° (E) 14:04:03 437.505
Gurwin Techsat 1B 28 Mar 14:03:43 14:08:11 29° 70° (ENE) 14:12:41 435.225
NO-84 28 Mar 14:05:55 14:07:50 15° 43° (NE) 14:09:50 435.350 FM
SPROUT 28 Mar 14:09:05 14:13:18 61° 284° (WNW) 14:17:29 437.525
ESTCUBE 1 28 Mar 14:15:43 14:17:56 14° 292° (WNW) 14:20:09 437.505/2401.250
SO-50 28 Mar 14:34:30 14:39:02 54° 114° (ESE) 14:43:34 436.795
RS-15 28 Mar 14:45:36 14:56:30 39° 309° (NW) 15:07:49 29.354- 29.394
DX 1 28 Mar 14:46:55 14:51:11 51° 285° (WNW) 14:55:25 434.975-435.025
Oscar 19 28 Mar 15:11:41 15:16:05 29° 262° (W) 15:20:29 437.125/150
UKube-1 28 Mar 15:23:04 15:26:45 28° 288° (WNW) 15:30:24 .
ITAMSAT 1 28 Mar 15:24:14 15:28:33 27° 70° (ENE) 15:32:53 435.822/435.867
SRMSAT 28 Mar 15:34:27 15:37:55 16° 197° (SSW) 15:41:22 437.500
NO-84 28 Mar 15:42:19 15:45:25 35° 234° (SW) 15:48:47 435.350 FM
Gurwin Techsat 1B 28 Mar 15:43:35 15:48:00 27° 263° (W) 15:52:27 435.225
AO-7 28 Mar 15:44:20 15:52:11 48° 67° (ENE) 16:00:02 .
MOZHAYETS 4 28 Mar 16:16:00 16:19:35 23° 96° (E) 16:23:09
SO-50 28 Mar 16:17:26 16:19:46 14° 309° (NW) 16:22:06 436.795
BEESAT 28 Mar 16:17:51 16:22:35 66° 102° (ESE) 16:27:17 436.000
ITUPSAT 1 28 Mar 16:35:35 16:40:21 80° 283° (WNW) 16:45:05 437.325
ITAMSAT 1 28 Mar 17:03:26 17:07:51 28° 262° (W) 17:12:18 435.822/435.867
O/OREOS (USA 219) 28 Mar 17:08:01 17:12:30 74° 107° (ESE) 17:17:02 437.305
RS-15 28 Mar 17:11:23 17:14:06 11° 339° (NNW) 17:16:49 29.354- 29.394
CUBESAT XI-V 28 Mar 17:14:57 17:17:39 15° 94° (E) 17:20:23 437.345
KKS-1 28 Mar 17:17:48 17:21:11 21° 97° (E) 17:24:32 437.445
AO-7 28 Mar 17:37:57 17:44:59 30° 261° (W) 17:52:04 .
STARS 28 Mar 17:47:45 17:50:53 19° 96° (E) 17:53:58 437.465
MOZHAYETS 4 28 Mar 17:52:56 17:56:36 25° 289° (WNW) 18:00:16
XW-2B 28 Mar 18:04:20 18:05:11 11° 69° (ENE) 18:06:02 145.730 - 145.750
XW-2C 28 Mar 18:13:14 18:15:23 15° 71° (ENE) 18:17:33 145.795 - 145.815
YUBILEINY 28 Mar 18:41:39 18:48:39 26° 74° (ENE) 18:55:37 435.215
CUBESAT XI-V 28 Mar 18:50:47 18:55:05 38° 286° (WNW) 18:59:24 437.345
DOVE 4 28 Mar 18:51:42 18:56:17 74° 77° (ENE) 19:01:13 437.250
KKS-1 28 Mar 18:53:56 18:57:38 26° 289° (WNW) 19:01:18 437.445
M-CUBED/EXP-1 PRIME 28 Mar 18:58:14 19:00:30 13° 98° (E) 19:02:43 437.505
XW-2F 28 Mar 19:01:42 19:05:28 68° 76° (ENE) 19:09:13 145.980 - 146.000
LilacSat-2 28 Mar 19:07:19 19:11:09 88° 245° (WSW) 19:14:59 437.200
PCSat 28 Mar 19:07:41 19:12:25 30° 59° (ENE) 19:17:07 145.827
CUTE-I 28 Mar 19:08:42 19:14:03 77° 76° (ENE) 19:19:26 437.470
HO-68 28 Mar 19:09:47 19:14:52 22° 64° (ENE) 19:19:58 435.675
NUDT-PHONESAT 28 Mar 19:20:05 19:23:50 79° 259° (W) 19:27:34 437.300
STARS 28 Mar 19:23:24 19:27:09 28° 289° (WNW) 19:30:52 437.465
CUTE 1.7 + AOD 2 28 Mar 19:23:32 19:25:06 12° 69° (ENE) 19:26:40 437.475
XW-2D 28 Mar 19:29:21 19:32:58 42° 261° (W) 19:36:35 145.860 - 145.880
KAITUO 1B 28 Mar 19:30:32 19:34:12 54° 260° (W) 19:37:52 145.475/437.950
RS-15 28 Mar 19:33:14 19:35:42 11° 20° (NNE) 19:38:09 29.354- 29.394
XW-2B 28 Mar 19:35:28 19:38:59 36° 261° (W) 19:42:31 145.730 - 145.750
XW-2C 28 Mar 19:46:07 19:49:20 26° 263° (W) 19:52:32 145.795 - 145.815
Tancredo 1 28 Mar 19:52:11 19:55:17 70° 131° (SE) 19:58:25 437.200
ISS 28 Mar 20:03:01 20:06:14 82° 133° (SE) 20:09:29 437.550
AO-85 28 Mar 20:16:26 20:20:29 31° 113° (ESE) 20:24:18 145.980
AAUSAT CUBESAT 2 28 Mar 20:23:21 20:26:10 18° 71° (ENE) 20:29:00 437.432
UWE-3 28 Mar 20:26:18 20:29:40 20° 71° (ENE) 20:32:59 435.000/436.395/437.385
XW-2A 28 Mar 20:27:32 20:30:56 65° 259° (WSW) 20:34:23 145.665 - 145.685
M-CUBED/EXP-1 PRIME 28 Mar 20:30:33 20:35:02 48° 290° (WNW) 20:39:28 437.505
YUBILEINY 28 Mar 20:37:19 20:45:39 53° 270° (W) 20:54:01 435.215
STRAND 1 28 Mar 20:40:01 20:45:01 54° 101° (E) 20:49:58 437.568
SEEDS 28 Mar 20:44:44 20:48:53 84° 79° (E) 20:53:03 437.485
Oscar 11 28 Mar 20:50:39 20:52:59 14° 69° (ENE) 20:55:20 .
